Wind_Speed
31 31 30 28 28 29 30 31 31 31 32 32 32 33 33 35 35 35 36 37 37 37 38 39 40 40 40 40 40 41 41 42 41 41 41 41 41 41 40 39 38 38 38 38
30 30 28 28 28 28 29 31 31 31 32 32 32 32 33 34 34 35 35 35 35 36 36 37 37 38 39 40 40 41 42 42 42 42 42 42 42 42 41 40 40 39 38 38
30 28 27 28 28 28 28 29 30 32 32 33 33 33 33 33 33 33 34 34 34 34 34 36 37 37 38 39 39 39 41 42 42 43 43 43 43 43 43 41 40 40 40 40
29 28 27 27 27 27 27 28 29 30 32 33 33 34 32 32 32 32 33 34 35 36 36 35 35 35 36 37 38 38 39 41 42 42 42 42 42 43 42 41 41 42 41 41
29 28 28 27 27 28 28 29 30 30 31 33 32 34 32 33 33 33 33 34 35 36 36 35 35 34 35 36 37 38 38 40 40 41 41 42 42 43 43 42 42 42 42 42
28 28 27 27 27 27 28 29 30 31 32 33 32 33 34 32 32 33 34 34 34 35 36 36 36 36 36 36 36 37 37 39 39 40 41 41 42 42 43 43 42 42 42 41
27 26 26 26 26 26 26 27 28 30 32 33 33 34 34 32 32 32 33 34 35 35 35 36 36 36 36 36 36 37 36 37 38 39 40 40 41 42 43 43 42 41 41 41
27 25 25 25 25 25 26 27 27 29 30 31 33 34 33 32 32 32 33 33 34 36 36 36 36 37 37 37 36 36 36 36 36 38 39 39 40 41 42 42 42 41 41 41
26 25 24 24 24 25 26 27 27 28 29 30 31 31 30 31 31 32 32 33 34 35 36 37 37 37 36 36 37 37 36 36 36 37 37 38 39 39 40 40 41 42 42 41
25 25 24 24 24 25 26 26 27 28 28 29 29 28 28 29 30 31 32 33 34 34 35 35 36 36 36 36 36 36 36 36 37 37 37 37 38 39 39 40 40 41 41 41
25 25 25 25 25 25 25 26 27 29 29 30 29 27 26 28 29 29 29 30 32 32 33 34 35 35 36 36 36 36 36 36 37 37 37 37 37 38 39 39 39 38 38 39
26 26 25 26 26 25 26 26 26 27 28 29 30 28 27 28 28 28 28 28 29 30 31 32 33 34 35 35 35 35 36 36 36 36 36 36 37 37 37 38 38 38 38 37
26 26 26 26 26 26 27 27 27 27 28 28 29 28 27 28 29 29 29 29 29 29 29 30 31 32 34 34 34 35 35 35 34 35 36 35 35 35 36 37 36 36 37 37
26 27 27 27 26 27 27 27 28 28 29 29 29 27 27 28 29 29 29 30 29 29 28 29 31 32 33 35 34 34 34 34 34 34 35 35 36 35 34 35 36 36 36 36
27 27 27 27 27 26 26 27 28 29 29 29 28 28 27 29 29 29 29 29 29 29 28 29 30 32 33 34 34 34 34 35 35 35 34 35 36 36 35 34 35 35 36 37
28 28 28 27 27 27 27 27 28 28 28 28 28 27 27 28 29 28 28 28 28 28 29 30 30 31 32 33 33 34 35 36 36 35 35 35 36 36 35 35 35 35 36 36
29 28 27 27 27 27 27 26 27 27 27 28 29 28 27 28 28 28 28 28 28 29 29 30 31 32 32 33 33 34 35 36 36 36 36 35 35 36 36 36 36 36 36 36
28 28 28 27 27 28 27 26 26 26 27 28 29 29 29 29 29 29 30 30 30 30 29 29 30 31 32 33 33 33 34 35 35 35 35 35 36 35 36 36 36 36 37 36
26 27 27 27 28 29 27 26 26 26 27 28 28 28 29 29 29 29 30 30 31 32 31 31 31 31 32 33 33 32 32 32 33 33 34 34 35 36 36 36 36 36 36 37
25 25 26 26 27 28 27 27 27 28 28 27 27 28 28 29 30 30 30 30 31 32 32 33 32 32 32 32 32 32 32 32 31 31 32 33 33 34 35 36 36 36 37 37
24 24 24 25 26 26 26 26 27 28 28 28 28 28 28 28 28 29 30 30 30 30 30 31 31 31 31 32 32 32 32 32 32 31 32 32 32 33 34 35 36 37 37 37
24 25 24 25 25 24 24 24 25 26 27 27 27 28 28 27 28 29 29 29 29 29 29 29 30 30 30 31 32 32 32 32 32 32 33 33 33 34 35 35 36 36 37 36
24 24 25 25 25 24 24 24 24 25 25 25 25 26 27 27 28 28 29 29 29 29 29 29 29 30 30 30 30 31 31 31 32 33 33 34 34 35 35 36 36 36 36 36
24 24 25 25 25 25 25 25 24 24 25 24 25 25 25 25 26 27 28 28 28 28 28 29 29 29 30 31 30 31 31 32 33 33 34 34 34 35 35 35 35 35 36 36
23 24 25 25 25 25 24 24 25 25 25 24 24 24 24 24 25 26 26 26 26 27 27 28 28 28 30 32 32 33 33 33 33 33 33 33 34 34 34 34 34 34 35 35
21 23 24 23 22 23 23 23 24 24 23 23 23 23 23 24 24 25 25 25 25 26 27 27 27 28 28 29 31 32 32 32 32 32 32 32 32 32 32 32 33 33 34 35
Wind_Direction
283 282 280 276 272 270 267 263 259 258 258 259 259 256 255 254 254 253 250 250 250 249 248 246 246 246 245 244 244 244 244 244 245 246 247 249 249 249 250 251 251 252 254 255
284 282 279 275 273 270 268 265 260 258 259 260 260 258 256 254 254 252 251 250 250 248 247 247 247 247 246 245 245 246 245 245 246 247 248 249 249 249 251 252 254 254 254 255
286 283 278 276 275 273 268 266 263 262 262 262 263 260 257 255 255 254 252 249 247 246 247 247 247 247 247 246 245 246 246 247 247 248 249 249 248 249 250 252 253 254 254 254
283 280 279 278 275 273 270 267 267 265 263 264 264 263 258 255 254 253 252 251 249 247 247 248 247 247 247 248 246 247 249 248 248 249 250 250 249 249 251 253 253 253 254 254
282 280 278 277 276 273 271 269 268 266 265 266 265 265 262 256 254 253 252 252 251 250 249 249 248 247 247 249 248 248 249 249 248 249 250 251 250 250 252 254 255 254 253 254
281 279 278 276 275 272 271 271 269 266 265 265 265 265 264 259 256 254 254 253 252 252 252 251 250 249 249 248 249 248 248 248 248 249 250 251 251 251 252 254 256 254 254 255
279 277 277 275 272 269 269 270 271 269 266 266 265 265 264 262 259 257 255 254 254 253 253 252 252 251 250 249 248 248 248 248 249 250 251 251 251 251 252 254 255 254 254 255
280 277 276 275 272 272 270 268 269 270 270 269 267 265 264 263 261 258 256 256 256 255 255 254 253 252 252 250 249 249 250 249 250 251 252 251 251 251 252 253 252 253 254 255
280 277 275 274 273 273 273 270 269 271 271 272 270 267 264 264 262 260 258 258 258 256 255 255 255 252 251 251 250 250 250 250 251 252 252 251 251 252 252 253 252 252 253 253
280 277 273 273 273 273 274 273 270 270 272 273 271 270 268 264 263 261 260 260 260 258 256 256 255 252 250 250 251 251 251 250 249 251 251 251 251 252 252 252 252 251 251 252
278 278 275 272 273 275 275 274 271 269 270 272 272 271 269 268 265 264 263 262 260 259 258 256 254 253 251 251 252 252 251 251 251 251 250 250 251 252 253 252 251 251 251 252
276 277 277 275 273 274 273 274 273 271 271 270 271 270 268 267 266 265 263 262 260 259 258 258 255 252 251 252 252 251 251 251 251 250 249 249 249 250 251 250 249 249 250 252
276 275 276 276 275 274 274 273 272 271 270 270 270 270 268 267 265 264 263 261 261 259 258 256 255 252 250 251 251 251 251 250 250 249 249 248 247 248 249 248 248 249 250 253
274 273 274 276 278 277 274 272 271 271 270 269 268 268 266 267 266 265 264 263 262 261 259 256 254 252 251 250 250 249 250 249 249 249 249 248 248 249 250 249 249 252 253 254
270 271 272 274 275 275 273 271 270 270 272 271 270 267 266 267 267 266 265 263 261 260 258 256 254 253 252 251 251 251 249 249 249 249 249 248 248 250 250 251 251 253 254 254
269 271 272 273 274 274 272 270 270 270 271 271 268 265 265 265 264 264 264 264 262 260 258 257 255 254 253 252 252 251 250 250 250 250 250 249 249 250 251 252 252 252 252 252
270 271 273 274 273 272 269 271 272 271 270 270 270 269 266 264 262 263 263 263 261 259 257 256 255 253 252 251 252 253 252 253 251 251 251 250 250 250 251 253 254 253 253 254
270 271 273 274 274 272 272 272 273 273 270 269 268 268 267 265 262 262 261 260 259 258 257 256 256 254 252 252 254 255 253 254 253 252 252 251 251 251 253 254 254 253 254 254
269 272 273 274 274 274 272 272 273 274 271 269 268 267 265 262 260 259 259 260 259 258 257 257 256 254 253 252 253 253 253 254 254 253 252 251 251 251 252 253 254 256 255 255
269 270 271 272 274 276 275 274 272 274 274 270 270 268 266 262 259 257 258 260 260 258 258 257 256 255 254 253 252 253 253 254 254 253 252 252 252 252 253 254 256 257 257 257
269 269 271 272 275 277 277 276 275 275 276 274 273 271 268 265 263 261 261 262 262 261 259 257 257 255 255 254 253 253 254 254 254 253 252 252 253 254 254 256 257 258 259 259
270 270 271 272 274 276 277 277 276 278 276 275 275 274 272 269 266 264 264 264 262 260 259 259 258 257 256 254 255 254 254 253 252 252 253 254 255 255 257 258 258 259 259 259
272 272 272 272 273 273 275 276 277 278 277 276 276 275 274 272 269 267 265 264 263 261 260 261 260 258 257 257 257 255 254 253 253 254 255 256 257 258 259 260 260 259 259 260
273 272 271 271 271 273 276 276 277 277 277 275 275 274 273 271 270 269 268 265 263 262 261 261 262 259 259 259 258 256 255 255 256 256 256 256 257 258 259 259 259 259 260 262
273 272 271 272 272 273 275 275 276 277 277 276 274 274 273 271 270 271 270 268 265 263 262 261 260 260 260 259 257 257 257 257 258 259 257 256 256 258 259 260 259 259 260 262
274 272 273 276 274 273 274 275 276 276 278 279 277 275 274 273 273 273 272 270 267 264 262 260 260 261 261 259 257 257 257 257 258 258 258 257 256 257 258 259 259 260 261 261
Height
5687 5686 5683 5681 5679 5679 5678 5678 5679 5681 5681 5682 5683 5684 5686 5687 5688 5689 5691 5693 5695 5698 5700 5702 5705 5707 5710 5714 5716 5719 5722 5724 5727 5730 5732 5735 5738 5740 5742 5744 5747 5749 5750 5752
5679 5677 5675 5673 5672 5671 5670 5670 5672 5673 5673 5673 5674 5676 5677 5678 5679 5681 5682 5684 5686 5688 5691 5693 5695 5698 5700 5703 5706 5709 5712 5714 5717 5720 5722 5725 5727 5730 5733 5735 5737 5740 5742 5743
5670 5669 5667 5665 5664 5663 5663 5663 5664 5664 5665 5665 5666 5668 5669 5670 5670 5672 5673 5675 5677 5679 5681 5683 5685 5688 5690 5693 5696 5699 5702 5704 5706 5709 5711 5714 5717 5720 5723 5725 5728 5730 5732 5734
5661 5661 5659 5658 5657 5656 5656 5656 5656 5656 5656 5656 5658 5657 5661 5661 5662 5664 5665 5666 5668 5670 5672 5674 5677 5679 5681 5683 5686 5689 5691 5694 5696 5699 5701 5703 5706 5710 5713 5716 5718 5720 5722 5724
5653 5653 5651 5650 5650 5649 5648 5648 5648 5648 5647 5648 5648 5648 5652 5653 5654 5656 5657 5658 5660 5662 5664 5666 5668 5670 5672 5674 5676 5679 5681 5684 5686 5689 5691 5693 5697 5700 5702 5705 5707 5709 5712 5714
5645 5644 5643 5642 5642 5641 5641 5641 5640 5639 5639 5639 5641 5640 5642 5644 5646 5647 5648 5649 5651 5653 5655 5656 5658 5661 5663 5665 5667 5669 5671 5674 5676 5679 5681 5684 5687 5690 5692 5694 5696 5699 5701 5703
5637 5636 5635 5635 5634 5634 5634 5634 5633 5631 5630 5631 5633 5631 5634 5636 5637 5638 5639 5640 5641 5643 5645 5647 5649 5651 5654 5656 5658 5660 5662 5664 5666 5669 5671 5674 5677 5679 5682 5684 5686 5688 5691 5693
5629 5629 5628 5627 5626 5626 5626 5626 5626 5624 5623 5623 5623 5623 5627 5627 5628 5628 5630 5631 5632 5634 5635 5637 5639 5641 5644 5646 5648 5650 5652 5655 5657 5659 5662 5664 5666 5669 5671 5673 5675 5678 5680 5683
5621 5621 5620 5619 5619 5619 5618 5618 5618 5617 5615 5615 5614 5616 5618 5618 5619 5620 5621 5622 5623 5624 5626 5627 5629 5631 5634 5636 5638 5640 5643 5645 5648 5650 5652 5654 5657 5659 5661 5663 5665 5667 5670 5672
5613 5612 5613 5612 5611 5611 5611 5611 5610 5609 5608 5607 5608 5609 5611 5610 5610 5612 5613 5613 5614 5615 5616 5618 5619 5621 5624 5626 5629 5631 5633 5635 5638 5640 5642 5644 5647 5649 5651 5652 5654 5657 5659 5661
5605 5605 5605 5605 5604 5604 5604 5603 5602 5601 5600 5600 5600 5604 5603 5603 5603 5604 5604 5604 5605 5606 5607 5608 5610 5612 5614 5617 5619 5621 5624 5626 5628 5630 5633 5635 5637 5639 5641 5643 5645 5647 5649 5651
5598 5598 5597 5597 5597 5596 5595 5595 5595 5595 5593 5592 5592 5598 5595 5595 5595 5596 5596 5596 5596 5597 5599 5600 5601 5603 5605 5607 5609 5612 5614 5616 5618 5620 5623 5625 5627 5629 5631 5633 5635 5637 5640 5641
5590 5590 5590 5589 5591 5589 5588 5587 5587 5586 5586 5585 5585 5590 5588 5587 5587 5587 5588 5588 5589 5589 5590 5592 5593 5594 5596 5598 5600 5603 5605 5607 5609 5611 5613 5615 5617 5620 5622 5624 5626 5628 5630 5632
5583 5582 5583 5583 5581 5580 5580 5580 5579 5578 5577 5577 5578 5579 5580 5579 5578 5579 5579 5580 5581 5582 5583 5584 5585 5586 5588 5590 5591 5594 5596 5598 5600 5602 5604 5606 5608 5610 5612 5615 5617 5618 5620 5622
5574 5574 5574 5574 5573 5572 5572 5571 5571 5570 5570 5569 5570 5570 5572 5571 5570 5571 5571 5572 5573 5574 5575 5576 5577 5578 5579 5581 5583 5585 5587 5589 5591 5593 5595 5597 5599 5601 5603 5605 5607 5609 5611 5612
5566 5566 5565 5566 5565 5564 5563 5564 5563 5563 5562 5561 5561 5562 5563 5562 5562 5562 5563 5564 5564 5565 5566 5567 5568 5569 5571 5573 5574 5576 5578 5580 5582 5584 5586 5588 5590 5592 5594 5596 5598 5599 5601 5602
5557 5557 5557 5557 5557 5555 5555 5557 5556 5555 5555 5554 5553 5555 5554 5554 5554 5555 5555 5556 5556 5557 5558 5558 5560 5561 5562 5564 5565 5567 5569 5570 5572 5575 5577 5579 5581 5583 5585 5586 5588 5590 5591 5593
5549 5549 5548 5548 5548 5547 5551 5549 5548 5547 5547 5546 5545 5545 5545 5545 5545 5546 5547 5547 5548 5548 5549 5550 5551 5552 5553 5555 5556 5558 5559 5561 5563 5565 5567 5570 5572 5573 5575 5577 5578 5580 5581 5583
5541 5541 5540 5539 5538 5538 5541 5541 5540 5539 5539 5538 5537 5536 5536 5536 5537 5538 5538 5538 5539 5539 5540 5541 5542 5543 5544 5545 5547 5548 5550 5552 5554 5556 5558 5560 5562 5564 5565 5567 5568 5570 5571 5572
5533 5533 5533 5532 5531 5531 5534 5533 5531 5531 5530 5530 5529 5528 5527 5527 5528 5530 5530 5530 5530 5530 5531 5531 5532 5533 5535 5536 5538 5539 5541 5543 5545 5547 5548 5550 5551 5553 5555 5557 5558 5559 5561 5562
5526 5525 5525 5524 5523 5523 5525 5524 5523 5524 5523 5522 5520 5519 5519 5519 5519 5520 5520 5520 5520 5521 5521 5522 5523 5524 5525 5527 5528 5530 5532 5534 5535 5537 5538 5540 5542 5543 5545 5546 5548 5549 5550 5551
5518 5518 5517 5516 5516 5518 5517 5516 5515 5515 5514 5513 5512 5511 5510 5510 5510 5510 5511 5511 5511 5512 5513 5513 5514 5515 5516 5517 5519 5520 5522 5524 5526 5527 5529 5530 5532 5533 5535 5536 5537 5538 5539 5540
5511 5511 5510 5510 5511 5510 5509 5508 5507 5506 5505 5504 5504 5503 5502 5502 5502 5502 5502 5502 5503 5503 5504 5504 5505 5506 5507 5508 5509 5511 5512 5514 5515 5517 5519 5520 5521 5523 5524 5525 5526 5527 5528 5529
5504 5503 5502 5502 5502 5502 5501 5500 5500 5499 5497 5496 5496 5495 5494 5493 5493 5493 5493 5493 5494 5494 5495 5495 5496 5497 5498 5499 5500 5501 5503 5504 5506 5507 5509 5510 5511 5512 5513 5514 5515 5516 5517 5519
5496 5495 5494 5494 5495 5494 5494 5493 5492 5491 5490 5489 5488 5487 5486 5486 5485 5485 5485 5485 5485 5485 5486 5486 5487 5488 5489 5490 5491 5492 5493 5494 5496 5497 5499 5500 5501 5502 5503 5504 5505 5506 5507 5508
5489 5488 5487 5487 5488 5487 5487 5486 5485 5484 5483 5481 5480 5479 5478 5478 5477 5477 5477 5476 5476 5476 5477 5477 5478 5479 5479 5480 5481 5483 5484 5485 5486 5488 5489 5490 5491 5492 5493 5494 5495 5495 5497 5497